1512118801.12,41787,6.19,72314.8,-9.61,-13.65,-14.51,0,*53
1512118802.35,41788,6.13,72308.3,-9.59,-13.65,-14.55,0,*53
1512118803.64,41789,6.13,72310.3,-9.61,-13.83,-14.83,0,*5A
1512118804.86,41790,6.19,72314.5,-9.59,-13.93,-14.93,0,*59
1512118806.09,41791,6.19,72316.0,-9.59,-13.93,-14.83,0,*59
1512118807.37,41792,6.19,72310.3,-9.57,-13.79,-14.75,0,*59
1512118808.63,41793,6.19,72312.8,-9.59,-13.83,-14.83,0,*5A
1512118809.88,41794,6.19,72312.0,-9.61,-14.15,-15.25,0,*53
1512118811.12,41795,6.19,72308.3,-9.61,-14.29,-15.25,0,*5D
1512118812.36,41796,6.19,72316.0,-9.61,-14.23,-15.15,0,*57
1512118813.57,41797,6.19,72312.0,-9.59,-14.15,-15.15,0,*58
1512118814.82,41798,6.19,72310.3,-9.61,-14.15,-15.11,0,*58
1512118816.07,41799,6.19,72308.0,-9.63,-14.43,-15.43,0,*5F
1512118817.3,41800,6.19,72310.5,-9.63,-14.61,-15.57,0,*55
1512118818.49,41801,6.19,72308.3,-9.63,-14.69,-15.63,0,*5B
1512118819.69,41802,6.19,72310.8,-9.63,-14.69,-15.71,0,*5B
1512118820.95,41803,6.19,72310.8,-9.65,-14.83,-15.75,0,*5C
1512118822.21,41804,6.19,72310.5,-9.63,-14.83,-15.85,0,*52
1512118823.48,41805,6.19,72310.8,-9.65,-14.97,-15.89,0,*5C
1512118824.74,41806,6.19,72308.0,-9.65,-14.75,-15.75,0,*50
1512118825.97,41807,6.19,72308.5,-9.63,-14.83,-15.75,0,*5E
1512118827.23,41808,6.19,72308.3,-9.65,-14.83,-15.75,0,*57
1512118828.46,41809,6.19,72308.8,-9.65,-14.89,-15.75,0,*5C
1512118829.73,41810,6.19,72310.8,-9.65,-14.97,-15.89,0,*58
1512118830.95,41811,6.13,72306.5,-9.71,-15.11,-16.13,0,*53
1512118832.17,41812,6.19,72310.8,-9.71,-15.01,-16.03,0,*50
1512118833.4,41813,6.19,72308.8,-9.71,-15.07,-16.09,0,*5D
1512118834.65,41814,6.19,72312.5,-9.67,-14.93,-15.89,0,*5A
1512118835.87,41815,6.13,72304.3,-9.71,-14.93,-15.95,0,*51
1512118837.09,41816,6.19,72310.3,-9.73,-15.07,-15.99,0,*50
1512118838.35,41817,6.13,72308.8,-9.73,-15.07,-16.09,0,*5B
1512118839.6,41818,6.19,72314.0,-9.73,-15.29,-16.27,0,*54
1512118840.86,41819,6.19,72316.0,-9.73,-15.39,-16.41,0,*54
1512118842.08,41820,6.19,72314.8,-9.73,-15.11,-15.99,0,*52
1512118843.33,41821,6.19,72314.0,-9.73,-15.11,-16.09,0,*59
1512118844.56,41822,6.19,72314.8,-9.73,-15.07,-15.99,0,*57
1512118845.78,41823,6.19,72318.0,-9.75,-14.97,-15.95,0,*54
1512118847.04,41824,6.19,72316.3,-9.75,-14.83,-15.85,0,*57
1512118848.27,41825,6.19,72312.5,-9.75,-15.15,-16.27,0,*53
1512118849.48,41826,6.19,72314.0,-9.75,-15.53,-16.41,0,*52
1512118850.73,41827,6.19,72312.8,-9.77,-15.35,-16.37,0,*50
1512118851.95,41828,6.19,72314.3,-9.79,-15.01,-16.03,0,*51
1512118853.23,41829,6.19,72318.0,-9.77,-14.97,-15.89,0,*51
1512118854.47,41830,6.19,72312.3,-9.79,-14.83,-15.75,0,*51
1512118855.71,41831,6.19,72312.8,-9.79,-14.83,-15.75,0,*50
1512118856.94,41832,6.19,72314.3,-9.77,-15.11,-15.99,0,*55
1512118858.17,41833,6.19,72312.3,-9.79,-14.89,-15.89,0,*5B
1512118859.4,41834,6.19,72312.5,-9.79,-14.83,-15.75,0,*55
1512118860.63,41835,6.19,72316.0,-9.79,-14.75,-15.71,0,*59
1512118861.86,41836,6.19,72316.8,-9.77,-14.69,-15.71,0,*59
1512118863.06,41837,6.19,72318.3,-9.79,-14.69,-15.63,0,*55
1512118864.26,41838,6.19,72318.8,-9.79,-14.61,-15.63,0,*52
1512118865.46,41839,6.19,72318.0,-9.79,-14.69,-15.63,0,*5B
1512118866.7,41840,6.19,72318.3,-9.79,-14.83,-15.75,0,*56
1512118867.93,41841,6.19,72320.5,-9.79,-14.75,-15.71,0,*5A
1512118869.17,41842,6.19,72314.3,-9.79,-14.83,-15.75,0,*54
1512118870.4,41843,6.19,72318.3,-9.77,-14.69,-15.71,0,*5B
1512118871.64,41844,6.19,72314.8,-9.79,-14.55,-15.49,0,*56
1512118872.85,41845,6.19,72314.8,-9.81,-14.61,-15.49,0,*57
1512118874.12,41846,6.19,72306.5,-9.81,-14.47,-15.39,0,*57
1512118875.35,41847,6.19,72310.5,-9.79,-14.29,-15.21,0,*50
1512118876.61,41848,6.19,72312.3,-9.77,-14.29,-15.21,0,*51
1512118877.84,41849,6.19,72316.3,-9.79,-14.29,-15.21,0,*5E
1512118879.08,41850,6.19,72312.8,-9.79,-14.47,-15.49,0,*50
1512118880.33,41851,6.19,72314.8,-9.79,-14.55,-15.49,0,*52
1512118881.59,41852,6.19,72314.8,-9.79,-14.55,-15.57,0,*5E
1512118882.82,41853,6.19,72312.5,-9.79,-14.61,-15.57,0,*58
1512118884.06,41854,6.19,72316.8,-9.79,-14.55,-15.49,0,*57
1512118885.27,41855,6.19,72316.8,-9.81,-14.37,-15.25,0,*5F
1512118886.54,41856,6.19,72318.8,-9.77,-14.23,-15.21,0,*54
1512118887.75,41857,6.19,72314.8,-9.79,-14.23,-15.11,0,*58
1512118888.96,41858,6.19,72314.0,-9.79,-14.23,-15.11,0,*57
1512118890.2,41859,6.19,72314.8,-9.77,-14.11,-15.11,0,*59
1512118891.47,41860,6.19,72314.5,-9.79,-14.01,-14.97,0,*53
1512118892.73,41861,6.19,72318.8,-9.79,-14.01,-14.97,0,*52
1512118894.0,41862,6.19,72318.5,-9.79,-13.97,-14.97,0,*59
1512118895.26,41863,6.19,72314.0,-9.79,-13.83,-14.83,0,*58
1512118896.56,41864,6.19,72314.5,-9.77,-13.83,-14.83,0,*51
1512118897.85,41865,6.19,72314.3,-9.77,-13.83,-14.83,0,*50
1512118899.11,41866,6.19,72316.3,-9.77,-13.87,-14.89,0,*5D
1512118900.37,41867,6.19,72318.0,-9.75,-13.79,-14.79,0,*50
1512118901.57,41868,6.19,72318.0,-9.75,-13.69,-14.69,0,*5F
1512118902.78,41869,6.19,72318.8,-9.75,-13.69,-14.65,0,*52
1512118904.01,41870,6.19,72318.5,-9.73,-13.69,-14.65,0,*5C
1512118905.22,41871,6.19,72314.8,-9.75,-13.69,-14.65,0,*5B
1512118906.45,41872,6.19,72314.8,-9.73,-13.69,-14.65,0,*5E
1512118907.71,41873,6.19,72316.0,-9.73,-13.69,-14.79,0,*52
1512118908.96,41874,6.19,72318.5,-9.73,-13.83,-14.69,0,*50
1512118910.19,41875,6.19,72316.3,-9.73,-13.69,-14.69,0,*55
1512118911.4,41876,6.19,72316.5,-9.75,-13.65,-14.65,0,*50
1512118912.63,41877,6.19,72314.5,-9.73,-13.69,-14.65,0,*5B
1512118913.89,41878,6.19,72316.8,-9.73,-13.83,-14.69,0,*5C
1512118915.14,41879,6.19,72318.5,-9.71,-14.01,-15.01,0,*5D
1512118916.38,41880,6.19,72314.8,-9.71,-14.19,-15.21,0,*50
1512118917.63,41881,6.19,72312.8,-9.71,-14.01,-15.01,0,*5A
1512118918.87,41882,6.19,72312.3,-9.71,-14.01,-14.89,0,*58
1512118920.12,41883,6.19,72318.0,-9.73,-13.93,-14.93,0,*5C
1512118921.41,41884,6.19,72312.3,-9.73,-13.97,-14.93,0,*5F
1512118922.67,41885,6.19,72310.5,-9.67,-14.01,-14.93,0,*53
1512118923.87,41886,6.19,72308.0,-9.71,-14.19,-15.07,0,*52
1512118925.11,41887,6.19,72310.5,-9.71,-14.23,-15.21,0,*5E
1512118926.34,41888,6.19,72314.3,-9.71,-14.23,-15.21,0,*51
1512118927.58,41889,6.19,72312.5,-9.73,-14.29,-15.25,0,*5C
1512118928.81,41890,6.19,72314.3,-9.73,-14.23,-15.15,0,*5D
1512118930.06,41891,6.19,72316.3,-9.73,-14.23,-15.25,0,*5F
1512118931.29,41892,6.19,72318.3,-9.73,-14.19,-15.11,0,*52
1512118932.58,41893,6.19,72316.3,-9.73,-14.05,-14.97,0,*51
1512118933.87,41894,6.19,72318.3,-9.73,-14.05,-14.93,0,*52
1512118935.07,41895,6.19,72318.5,-9.71,-13.93,-14.89,0,*52
1512118936.27,41896,6.19,72314.0,-9.71,-13.93,-14.89,0,*51
1512118937.48,41897,6.25,72318.3,-9.71,-13.93,-14.89,0,*50
1512118938.71,41898,6.19,72318.5,-9.71,-13.87,-14.89,0,*5A
1512118939.96,41899,6.19,72314.8,-9.71,-13.79,-14.79,0,*55
1512118941.18,41900,6.19,72316.0,-9.71,-13.73,-14.75,0,*52
1512118942.41,41901,6.19,72316.0,-9.67,-13.65,-14.75,0,*53
1512118943.61,41902,6.19,72316.0,-9.71,-13.65,-14.65,0,*56
1512118944.84,41903,6.19,72318.5,-9.67,-13.51,-14.51,0,*50
1512118946.07,41904,6.19,72318.3,-9.71,-13.47,-14.47,0,*50
1512118947.3,41905,6.19,72318.5,-9.67,-13.47,-14.47,0,*56
1512118948.49,41906,6.19,72316.0,-9.67,-13.47,-14.37,0,*52
1512118949.69,41907,6.19,72318.3,-9.67,-13.47,-14.37,0,*53
1512118950.92,41908,6.19,72316.5,-9.67,-13.61,-14.65,0,*5F
1512118952.18,41909,6.19,72320.3,-9.65,-13.55,-14.55,0,*58
1512118953.43,41910,6.19,72318.0,-9.65,-13.47,-14.47,0,*50
1512118954.66,41911,6.19,72318.0,-9.63,-13.73,-14.75,0,*51
1512118955.91,41912,6.19,72316.5,-9.63,-13.87,-14.83,0,*50
1512118957.17,41913,6.25,72318.5,-9.63,-13.83,-14.83,0,*55
1512118958.43,41914,6.19,72316.8,-9.63,-13.83,-14.83,0,*52
1512118959.69,41915,6.19,72318.5,-9.65,-13.69,-14.55,0,*5A
1512118960.91,41916,6.25,72316.3,-9.63,-13.55,-14.55,0,*50
1512118962.17,41917,6.19,72314.0,-9.63,-13.61,-14.55,0,*56
1512118963.42,41918,6.25,72320.0,-9.63,-13.87,-14.75,0,*53
1512118964.65,41919,6.25,72316.8,-9.63,-14.01,-15.07,0,*5F
1512118965.86,41920,6.25,72320.8,-9.63,-14.15,-15.15,0,*53
1512118967.08,41921,6.25,72316.3,-9.63,-14.15,-15.07,0,*51
1512118968.34,41922,6.19,72312.5,-9.63,-14.01,-14.97,0,*5F
1512118969.58,41923,6.25,72318.8,-9.63,-13.97,-14.89,0,*59
1512118970.86,41924,6.25,72318.3,-9.61,-13.79,-14.79,0,*53
1512118972.11,41925,6.19,72318.0,-9.65,-13.69,-14.75,0,*5B
1512118973.35,41926,6.25,72318.0,-9.61,-13.69,-14.65,0,*5D
1512118974.6,41927,6.19,72312.8,-9.63,-13.83,-14.75,0,*5B
1512118975.84,41928,6.19,72314.0,-9.63,-13.97,-14.89,0,*52
1512118977.1,41929,6.19,72314.0,-9.63,-14.01,-15.01,0,*5A
1512118978.33,41930,6.25,72318.3,-9.63,-14.15,-15.01,0,*57
1512118979.54,41931,6.19,72316.0,-9.63,-14.15,-15.07,0,*50
1512118980.78,41932,6.25,72320.3,-9.65,-14.15,-15.07,0,*55
1512118982.07,41933,6.25,72320.8,-9.65,-13.97,-14.97,0,*51
1512118983.33,41934,6.25,72318.5,-9.63,-13.97,-14.97,0,*50
1512118984.57,41935,6.25,72320.0,-9.63,-14.15,-15.01,0,*52
1512118985.81,41936,6.25,72322.0,-9.61,-14.11,-15.11,0,*56
1512118987.04,41937,6.25,72316.3,-9.65,-14.29,-15.15,0,*5C
1512118988.25,41938,6.25,72316.8,-9.63,-14.19,-15.15,0,*56
1512118989.48,41939,6.25,72318.5,-9.65,-14.19,-15.15,0,*51
1512118990.71,41940,6.19,72318.3,-9.65,-14.29,-15.15,0,*5C
1512118991.95,41941,6.25,72320.8,-9.65,-14.19,-15.15,0,*5E
1512118993.16,41942,6.25,72316.8,-9.63,-14.15,-15.07,0,*54
1512118994.37,41943,6.25,72318.5,-9.63,-14.11,-15.07,0,*51
1512118995.63,41944,6.25,72318.3,-9.63,-14.01,-14.97,0,*5F
1512118996.92,41945,6.19,72318.8,-9.65,-13.97,-14.97,0,*50
1512118998.18,41946,6.25,72316.8,-9.63,-13.97,-14.83,0,*50
1512118999.46,41947,6.25,72322.3,-9.65,-13.83,-14.75,0,*5B
1512119000.72,41948,6.25,72318.8,-9.61,-13.65,-14.51,0,*5E
1512119001.97,41949,6.25,72318.8,-9.65,-13.55,-14.55,0,*5C
1512119003.19,41950,6.25,72316.8,-9.63,-13.47,-14.43,0,*56
1512119004.42,41951,6.25,72316.8,-9.63,-13.43,-14.47,0,*57
1512119005.64,41952,6.19,72314.3,-9.63,-13.43,-14.43,0,*50
1512119006.9,41953,6.25,72318.3,-9.61,-13.37,-14.29,0,*5C
1512119008.15,41954,6.25,72316.5,-9.61,-13.29,-14.29,0,*54
1512119009.41,41955,6.25,72316.8,-9.61,-13.29,-14.23,0,*5F
1512119010.62,41956,6.25,72318.8,-9.59,-13.23,-14.29,0,*57
1512119011.85,41957,6.25,72320.0,-9.61,-13.23,-14.23,0,*57
1512119013.09,41958,6.25,72316.8,-9.61,-13.23,-14.23,0,*58
1512119014.29,41959,6.25,72322.3,-9.59,-13.19,-14.11,0,*5A
1512119015.5,41960,6.25,72316.8,-9.59,-13.19,-14.15,0,*54
1512119016.72,41961,6.25,72322.5,-9.61,-13.11,-14.11,0,*52
1512119017.93,41962,6.25,72320.3,-9.59,-13.19,-14.15,0,*56
1512119019.13,41963,6.25,72322.8,-9.59,-13.11,-14.11,0,*5B
1512119020.35,41964,6.25,72322.8,-9.57,-13.07,-14.11,0,*55
1512119021.6,41965,6.25,72322.3,-9.57,-13.07,-14.05,0,*51
1512119022.83,41966,6.25,72320.5,-9.55,-13.07,-14.01,0,*54
1512119024.09,41967,6.25,72322.0,-9.57,-13.07,-14.01,0,*57
1512119025.32,41968,6.25,72324.0,-9.55,-12.93,-14.01,0,*56
1512119026.54,41969,6.25,72324.3,-9.55,-13.01,-13.93,0,*51
1512119027.77,41970,6.25,72322.8,-9.55,-13.07,-14.01,0,*53
1512119029.0,41971,6.25,72322.0,-9.55,-13.07,-14.01,0,*52
1512119030.21,41972,6.25,72322.8,-9.55,-13.19,-14.11,0,*5F
1512119031.43,41973,6.25,72322.3,-9.53,-13.47,-14.61,0,*54
1512119032.69,41974,6.25,72320.0,-9.53,-13.87,-14.89,0,*59
1512119033.95,41975,6.25,72316.0,-9.51,-13.87,-14.83,0,*50
1512119035.14,41976,6.25,72322.3,-9.51,-13.69,-14.69,0,*57
1512119036.4,41977,6.25,72320.3,-9.53,-13.61,-14.61,0,*54
1512119037.66,41978,6.25,72320.5,-9.53,-13.55,-14.47,0,*58
1512119038.92,41979,6.25,72318.5,-9.53,-13.55,-14.47,0,*59
1512119040.16,41980,6.25,72322.3,-9.53,-13.55,-14.61,0,*5B
1512119041.41,41981,6.25,72318.3,-9.53,-13.55,-14.55,0,*5D
1512119042.63,41982,6.25,72316.8,-9.51,-13.43,-14.43,0,*5C
1512119043.89,41983,6.25,72320.5,-9.53,-13.33,-14.33,0,*5F
1512119045.12,41984,6.25,72322.0,-9.51,-13.43,-14.47,0,*5E
1512119046.37,41985,6.25,72318.8,-9.53,-13.61,-14.61,0,*59
1512119047.57,41986,6.25,72320.3,-9.51,-13.73,-14.69,0,*53
1512119048.77,41987,6.25,72324.0,-9.51,-13.69,-14.69,0,*59
1512119050.0,41988,6.25,72322.5,-9.53,-13.69,-14.61,0,*5C
1512119051.23,41989,6.25,72320.0,-9.51,-13.55,-14.55,0,*57
1512119052.46,41990,6.25,72322.3,-9.51,-13.55,-14.55,0,*5F
1512119053.68,41991,6.25,72320.3,-9.51,-13.61,-14.61,0,*5E
1512119054.88,41992,6.25,72320.0,-9.51,-13.73,-14.69,0,*56
1512119056.11,41993,6.25,72320.3,-9.51,-13.87,-14.89,0,*52
1512119057.34,41994,6.25,72320.5,-9.51,-14.05,-15.07,0,*5F
1512119058.55,41995,6.25,72320.5,-9.51,-14.29,-15.29,0,*5C
1512119059.83,41996,6.25,72322.0,-9.53,-14.47,-15.49,0,*53
1512119061.08,41997,6.25,72318.8,-9.53,-14.29,-15.35,0,*51
1512119062.32,41998,6.25,72316.0,-9.53,-14.15,-15.07,0,*50
1512119063.56,41999,6.25,72318.3,-9.51,-14.05,-15.15,0,*51
1512119064.79,42000,6.25,72318.0,-9.51,-14.05,-15.07,0,*58
1512119066.08,42001,6.25,72322.5,-9.53,-14.01,-15.01,0,*59
1512119067.31,42002,6.25,72320.3,-9.51,-13.87,-14.89,0,*50
1512119068.54,42003,6.25,72320.5,-9.51,-13.83,-14.89,0,*55
1512119069.8,42004,6.25,72322.8,-9.53,-13.83,-14.69,0,*5E
1512119071.09,42005,6.25,72318.5,-9.53,-13.83,-14.83,0,*5B
1512119072.35,42006,6.25,72324.3,-9.53,-13.87,-14.89,0,*56
1512119073.58,42007,6.25,72318.8,-9.51,-13.87,-14.89,0,*55
1512119074.84,42008,6.25,72318.3,-9.51,-13.83,-14.93,0,*55
1512119076.09,42009,6.25,72318.5,-9.51,-13.87,-14.93,0,*50
1512119077.35,42010,6.25,72318.0,-9.51,-13.97,-15.01,0,*53
1512119078.56,42011,6.25,72318.5,-9.51,-14.15,-15.07,0,*59
1512119079.84,42012,6.25,72318.8,-9.53,-14.43,-15.43,0,*5B
1512119081.13,42013,6.25,72318.0,-9.53,-14.55,-15.57,0,*58
1512119082.4,42014,6.25,72316.3,-9.53,-14.55,-15.49,0,*50
1512119083.68,42015,6.25,72322.0,-9.53,-14.55,-15.57,0,*5E
1512119084.97,42016,6.25,72320.5,-9.53,-14.55,-15.57,0,*5D
1512119086.25,42017,6.25,72322.0,-9.53,-14.55,-15.57,0,*5C
1512119087.48,42018,6.25,72320.3,-9.55,-14.75,-15.75,0,*57
1512119088.71,42019,6.25,72320.5,-9.55,-14.89,-15.81,0,*5E
1512119089.97,42020,6.25,72320.3,-9.55,-14.79,-15.81,0,*5B
1512119091.2,42021,6.25,72322.8,-9.55,-14.75,-15.75,0,*5D
1512119092.41,42022,6.25,72320.0,-9.55,-14.61,-15.53,0,*5F
1512119093.65,42023,6.25,72328.0,-9.55,-14.37,-15.39,0,*51
1512119094.9,42024,6.25,72324.0,-9.57,-14.11,-15.21,0,*59
1512119096.14,42025,6.25,72318.8,-9.55,-14.11,-15.21,0,*5A
1512119097.4,42026,6.25,72316.8,-9.57,-14.11,-15.21,0,*5B
1512119098.61,42027,6.25,72320.8,-9.55,-14.19,-15.11,0,*53
1512119099.87,42028,6.25,72320.0,-9.57,-14.01,-15.07,0,*50
1512119101.13,42029,6.25,72318.8,-9.55,-14.01,-14.97,0,*5B
1512119102.34,42030,6.25,72318.8,-9.55,-13.93,-15.07,0,*57
1512119103.6,42031,6.25,72320.3,-9.55,-14.05,-14.97,0,*56
1512119104.83,42032,6.25,72318.0,-9.55,-14.19,-15.21,0,*54
1512119106.04,42033,6.25,72320.3,-9.55,-14.11,-15.11,0,*5E
1512119107.33,42034,6.25,72322.5,-9.57,-14.01,-14.97,0,*55
1512119108.62,42035,6.25,72322.5,-9.57,-14.01,-14.97,0,*54
1512119109.85,42036,6.25,72318.5,-9.55,-13.93,-14.97,0,*59
1512119111.09,42037,6.25,72324.3,-9.55,-14.05,-15.11,0,*5F
1512119112.32,42038,6.25,72326.8,-9.55,-14.11,-15.21,0,*56
1512119113.53,42039,6.25,72322.3,-9.55,-14.61,-15.49,0,*5E
1512119114.73,42040,6.25,72324.5,-9.55,-14.61,-15.63,0,*58
1512119115.96,42041,6.25,72322.3,-9.57,-14.61,-15.63,0,*5B
1512119117.16,42042,6.25,72322.0,-9.55,-14.61,-15.63,0,*5A
1512119118.43,42043,6.25,72324.8,-9.57,-14.51,-15.53,0,*59
1512119119.69,42044,6.25,72324.3,-9.57,-14.51,-15.53,0,*5E
1512119120.96,42045,6.25,72324.8,-9.57,-14.51,-15.53,0,*5F
1512119122.23,42046,6.25,72326.0,-9.57,-14.47,-15.49,0,*50
1512119123.49,42047,6.25,72330.3,-9.57,-14.23,-15.35,0,*58
1512119124.76,42048,6.25,72324.3,-9.57,-14.47,-15.49,0,*5E
1512119125.97,42049,6.25,72320.5,-9.55,-14.61,-15.53,0,*52
1512119127.19,42050,6.25,72318.8,-9.57,-14.65,-15.67,0,*5B
1512119128.44,42051,6.25,72324.5,-9.57,-14.89,-15.81,0,*50
1512119129.67,42052,6.25,72326.5,-9.57,-14.89,-15.95,0,*56
1512119130.93,42053,6.25,72326.3,-9.57,-14.89,-15.81,0,*52
1512119132.19,42054,6.25,72328.8,-9.59,-14.83,-15.85,0,*55
1512119133.42,42055,6.25,72324.0,-9.59,-14.97,-15.95,0,*50
1512119134.67,42056,6.25,72322.0,-9.61,-14.93,-15.95,0,*5C
1512119135.9,42057,6.25,72322.5,-9.59,-14.83,-15.99,0,*5B
1512119137.13,42058,6.25,72320.5,-9.61,-14.69,-15.71,0,*5D
1512119138.39,42059,6.25,72322.3,-9.59,-14.55,-15.57,0,*5C
1512119139.58,42060,6.25,72320.3,-9.59,-14.65,-15.67,0,*56
1512119140.8,42061,6.25,72324.3,-9.61,-14.69,-15.67,0,*50
1512119142.02,42062,6.25,72326.8,-9.61,-14.69,-15.67,0,*53
1512119143.25,42063,6.25,72326.3,-9.61,-14.69,-15.71,0,*55
1512119144.51,42064,6.25,72324.5,-9.59,-14.83,-15.85,0,*56
1512119145.73,42065,6.31,72330.8,-9.61,-14.69,-15.71,0,*53
1512119147.01,42066,6.31,72324.5,-9.61,-14.75,-15.57,0,*59
1512119148.24,42067,6.25,72320.0,-9.61,-14.65,-15.67,0,*5A
1512119149.52,42068,6.25,72326.0,-9.61,-14.55,-15.57,0,*55
1512119150.81,42069,6.25,72322.8,-9.61,-14.55,-15.57,0,*54
1512119152.05,42070,6.25,72324.0,-9.63,-14.47,-15.49,0,*52
1512119153.29,42071,6.25,72328.5,-9.63,-14.55,-15.49,0,*50
1512119154.5,42072,6.25,72328.0,-9.63,-14.33,-15.49,0,*53
1512119155.71,42073,6.31,72330.3,-9.63,-14.29,-15.29,0,*5F
1512119156.94,42074,6.31,72328.8,-9.63,-14.29,-15.35,0,*55
1512119158.15,42075,6.31,72328.8,-9.63,-14.29,-15.29,0,*59
1512119159.39,42076,6.31,72330.8,-9.63,-14.19,-15.43,0,*55
1512119160.62,42077,6.31,72328.5,-9.63,-14.19,-15.35,0,*55
1512119161.83,42078,6.25,72326.0,-9.63,-14.11,-15.07,0,*53
1512119163.08,42079,6.25,72328.5,-9.61,-13.93,-14.93,0,*51
1512119164.34,42080,6.25,72324.0,-9.61,-13.93,-14.93,0,*57
1512119165.59,42081,6.25,72324.8,-9.61,-13.93,-14.97,0,*52
1512119166.89,42082,6.25,72326.0,-9.61,-13.97,-14.97,0,*55
1512119168.14,42083,6.25,72326.0,-9.61,-13.93,-14.83,0,*55
1512119169.37,42084,6.25,72326.5,-9.59,-13.69,-14.79,0,*59
1512119170.57,42085,6.25,72326.8,-9.59,-13.65,-14.69,0,*55
1512119171.82,42086,6.31,72326.5,-9.61,-13.79,-14.69,0,*50
1512119173.09,42087,6.31,72328.3,-9.59,-13.83,-14.83,0,*5B
1512119174.32,42088,6.25,72326.0,-9.59,-13.93,-14.97,0,*50
1512119175.53,42089,6.25,72322.5,-9.59,-14.11,-15.11,0,*53
1512119176.79,42090,6.31,72328.0,-9.59,-14.05,-15.01,0,*5F
1512119178.01,42091,6.31,72326.8,-9.59,-13.93,-14.93,0,*5C
1512119179.27,42092,6.25,72322.0,-9.57,-13.73,-14.75,0,*57
1512119180.49,42093,6.25,72324.0,-9.59,-13.65,-14.79,0,*53
1512119181.72,42094,6.25,72324.0,-9.57,-13.47,-14.61,0,*53
1512119182.93,42095,6.25,72324.0,-9.59,-13.55,-14.65,0,*5B
1512119184.16,42096,6.25,72326.5,-9.57,-13.65,-14.65,0,*55
1512119185.39,42097,6.31,72328.8,-9.55,-13.61,-14.65,0,*52
1512119186.64,42098,6.25,72326.8,-9.57,-13.61,-14.61,0,*5B
1512119187.88,42099,6.25,72324.0,-9.55,-13.61,-14.61,0,*58
1512119189.08,42100,6.31,72326.8,-9.55,-13.47,-14.61,0,*5D
1512119190.3,42101,6.25,72328.0,-9.55,-13.47,-14.51,0,*5F
1512119191.54,42102,6.25,72326.0,-9.55,-13.61,-14.65,0,*5F
1512119192.74,42103,6.25,72324.8,-9.55,-13.65,-14.65,0,*5A
1512119193.97,42104,6.25,72324.3,-9.55,-13.79,-14.89,0,*52
1512119195.21,42105,6.25,72326.5,-9.55,-14.01,-15.07,0,*5C
1512119196.48,42106,6.31,72330.5,-9.55,-14.01,-14.97,0,*57
1512119197.7,42107,6.31,72326.8,-9.55,-13.93,-14.93,0,*5E
1512119198.93,42108,6.31,72328.5,-9.55,-13.87,-14.89,0,*5F
1512119200.19,42109,6.25,72328.0,-9.55,-13.79,-14.79,0,*50
1512119201.42,42110,6.25,72326.8,-9.55,-13.79,-14.89,0,*57
1512119202.65,42111,6.31,72326.3,-9.51,-13.87,-14.89,0,*53
1512119203.94,42112,6.25,72324.3,-9.53,-13.83,-14.83,0,*5C
1512119205.17,42113,6.31,72326.3,-9.49,-13.73,-14.69,0,*5D
1512119206.39,42114,6.25,72324.3,-9.51,-13.61,-14.69,0,*50
1512119207.59,42115,6.25,72320.3,-9.51,-13.55,-14.61,0,*5E
1512119208.82,42116,6.25,72324.3,-9.53,-13.55,-14.61,0,*5F
1512119210.05,42117,6.31,72324.0,-9.49,-13.55,-14.65,0,*51
1512119211.28,42118,6.25,72320.8,-9.51,-13.61,-14.69,0,*5C
1512119212.51,42119,6.31,72324.0,-9.53,-13.55,-14.69,0,*58
1512119213.73,42120,6.31,72324.5,-9.51,-13.43,-14.55,0,*58
1512119214.95,42121,6.25,72320.5,-9.51,-13.43,-14.43,0,*5E
1512119216.2,42122,6.31,72326.0,-9.51,-13.33,-14.43,0,*5A
1512119217.44,42123,6.25,72322.3,-9.51,-13.33,-14.43,0,*5B
1512119218.64,42124,6.25,72322.8,-9.51,-13.19,-14.29,0,*58
1512119219.87,42125,6.25,72318.0,-9.49,-13.15,-14.23,0,*56
1512119221.09,42126,6.31,72324.8,-9.49,-13.15,-14.23,0,*55
1512119222.33,42127,6.25,72322.3,-9.45,-13.23,-14.23,0,*5D
1512119223.57,42128,6.31,72324.0,-9.49,-13.23,-14.23,0,*5E
1512119224.79,42129,6.25,72316.5,-9.49,-13.11,-14.23,0,*5E
1512119226.03,42130,6.31,72324.5,-9.45,-13.11,-14.23,0,*5A
1512119227.27,42131,6.31,72320.8,-9.45,-13.15,-14.23,0,*5F
1512119228.51,42132,6.25,72316.5,-9.45,-13.11,-14.23,0,*58
1512119229.76,42133,6.31,72322.8,-9.49,-13.29,-14.37,0,*5B
1512119231.01,42134,6.25,72318.3,-9.45,-13.23,-14.37,0,*5A
1512119232.25,42135,6.31,72320.3,-9.41,-13.19,-14.33,0,*52
1512119233.47,42136,6.31,72322.0,-9.43,-13.19,-14.33,0,*53
1512119234.69,42137,6.25,72320.0,-9.43,-13.19,-14.37,0,*56
1512119235.91,42138,6.31,72324.8,-9.43,-13.23,-14.23,0,*55
1512119237.16,42139,6.31,72326.3,-9.41,-13.23,-14.33,0,*57
1512119238.4,42140,6.25,72324.3,-9.41,-13.23,-14.23,0,*58
1512119239.65,42141,6.25,72320.5,-9.41,-13.23,-14.33,0,*58
1512119240.93,42142,6.31,72326.8,-9.41,-13.51,-14.51,0,*5A
1512119242.18,42143,6.25,72320.5,-9.43,-13.51,-14.51,0,*59
1512119243.45,42144,6.25,72320.5,-9.41,-13.47,-14.47,0,*5C
1512119244.71,42145,6.25,72320.5,-9.41,-13.33,-14.37,0,*59
1512119245.95,42146,6.31,72322.8,-9.41,-13.47,-14.37,0,*59
1512119247.25,42147,6.25,72320.8,-9.41,-13.37,-14.51,0,*5F
1512119248.46,42148,6.25,72320.5,-9.39,-13.55,-14.61,0,*58
1512119249.68,42149,6.31,72322.5,-9.39,-13.73,-14.89,0,*5B
1512119250.93,42150,6.25,72320.5,-9.39,-14.05,-15.15,0,*51
1512119252.17,42151,6.25,72322.5,-9.39,-13.83,-14.89,0,*5D
1512119253.44,42152,6.25,72322.3,-9.41,-13.73,-14.75,0,*5D
1512119254.71,42153,6.31,72322.5,-9.41,-13.61,-14.61,0,*5A
1512119255.98,42154,6.25,72322.0,-9.41,-13.61,-14.61,0,*5D
1512119257.26,42155,6.25,72322.0,-9.41,-13.73,-14.79,0,*56
1512119258.52,42156,6.31,72324.5,-9.43,-13.79,-14.79,0,*5D
1512119259.76,42157,6.25,72326.5,-9.43,-13.65,-14.75,0,*5D
1512119261.01,42158,6.25,72322.8,-9.41,-13.51,-14.61,0,*52
1512119262.26,42159,6.25,72322.0,-9.41,-13.51,-14.61,0,*53
1512119263.53,42160,6.25,72320.0,-9.41,-13.73,-14.79,0,*50
1512119264.8,42161,6.31,72326.8,-9.41,-13.73,-14.75,0,*5D
1512119266.04,42162,6.31,72326.5,-9.39,-13.61,-14.61,0,*57
1512119267.31,42163,6.25,72326.0,-9.37,-13.61,-14.69,0,*50
1512119268.55,42164,6.25,72322.3,-9.39,-13.61,-14.61,0,*51
1512119269.79,42165,6.31,72328.5,-9.39,-13.55,-14.55,0,*50
1512119271.03,42166,6.31,72330.5,-9.39,-13.61,-14.61,0,*53
1512119272.3,42167,6.31,72322.8,-9.37,-13.73,-14.79,0,*56
1512119273.53,42168,6.25,72322.0,-9.39,-13.93,-15.01,0,*57
1512119274.8,42169,6.25,72322.8,-9.37,-13.93,-14.93,0,*52
1512119276.1,42170,6.25,72322.8,-9.37,-13.83,-14.93,0,*5B
1512119277.34,42171,6.25,72320.3,-9.39,-13.83,-14.89,0,*5F
1512119278.59,42172,6.25,72322.5,-9.39,-13.87,-14.89,0,*58
1512119279.86,42173,6.31,72322.5,-9.37,-13.87,-14.89,0,*57
1512119281.1,42174,6.31,72322.3,-9.39,-13.69,-14.75,0,*5D
1512119282.36,42175,6.31,72324.0,-9.39,-13.61,-14.55,0,*56
1512119283.58,42176,6.25,72322.8,-9.39,-13.55,-14.61,0,*55
1512119284.82,42177,6.31,72324.5,-9.39,-13.55,-14.55,0,*53
1512119286.08,42178,6.25,72322.8,-9.37,-13.61,-14.69,0,*5A
1512119287.32,42179,6.31,72324.5,-9.37,-13.55,-14.69,0,*5C
1512119288.62,42180,6.25,72322.3,-9.37,-13.83,-14.75,0,*5C
1512119289.9,42181,6.31,72322.0,-9.37,-13.83,-14.89,0,*5E
1512119291.2,42182,6.31,72326.8,-9.37,-13.83,-14.93,0,*56
1512119292.44,42183,6.31,72326.8,-9.39,-13.83,-14.89,0,*52
1512119293.72,42184,6.31,72328.8,-9.37,-13.83,-14.89,0,*5B
1512119294.96,42185,6.31,72326.8,-9.39,-13.93,-14.93,0,*5E
1512119296.25,42186,6.31,72326.8,-9.37,-13.87,-14.93,0,*56
1512119297.49,42187,6.31,72328.5,-9.39,-13.93,-14.93,0,*5C
1512119298.74,42188,6.31,72326.5,-9.37,-14.15,-15.15,0,*5B
1512119299.99,42189,6.31,72326.0,-9.39,-14.05,-15.07,0,*56
1512119301.25,42190,6.31,72324.8,-9.39,-13.87,-14.93,0,*5F
1512119302.52,42191,6.31,72326.5,-9.37,-13.73,-14.79,0,*5F
1512119303.81,42192,6.31,72328.0,-9.37,-13.87,-14.93,0,*53
1512119305.02,42193,6.31,72328.8,-9.39,-13.93,-15.07,0,*55